Location: Bergnerzell
(49.1816°N, 10.2565°E)
Time: 07:46:39
(UTC+00:00)

Cosmos 1825 - Pass Details

Date: 16 August 2024
Orbit: 422 x 426 km, 82.5° (Epoch: 08 September)

Event Time Altitude Azimuth Distance (km) Brightness Sun altitude
Rises 00:51:54 0° 8° (N) 2,404 6.9 -24.2°
Reaches altitude 10° 00:55:06 10° 43° (NE) 1,526 5.5 -24.0°
Maximum altitude 00:56:24 12° 66° (ENE) 1,417 5.0 -23.9°
Drops below altitude 10° 00:57:41 10° 89° (E) 1,519 4.9 -23.8°
Enters shadow 00:58:46 - 104° (ESE) 1,744 5.0 -23.7°
